2022-057AE (52760 NORAD) Tracking and Keplerian Element Data

This shows tracking and keplerian element data for the satellite.

Feedback or suggestion? Click here.




ElementValue
Catalog52760
Name2022-057AE
Epoch Orbit712
Epoch Day192.8485371
Epoch Year2022
RAAN307.184
Inclination97.519
Eccentricity0.001336
Argument of Perigee75.442
Mean Anonmoly284.8292
Mean Motion15.12725252
Decay Rate1.509E-05
L11 52760U 22057AE 22192.84853710 .00001509 00000+0 89708-4 0 9998
L22 52760 97.5190 307.1840 0013360 75.4420 284.8292 15.12725252 7128

Live tracking and technical data element details for 2022-057AE (NORAD 52760). 2022-057AE can be tracked NOW for your location showing map with azimuth and elevation plus other details from your city location.

Track the satellite on the map from your city or location and see movement details for azimuth, elevation, latitude, longitude, range, height, and movement on the map or in text.







IsCatalogInMostPopularTable: catalog: 52760, numindb: 4
Update: records affected: 1



GetName: 52760 2022-057AE

Hit Count: updated at: Sun, 14 Aug 2022 00:24:44 GMT